Weather History for Lakehurst NAS, NJ

Change the Weather History Date:

Tuesday, May 14, 2013

  Actual Average Record
Temperature  
Mean Temperature 54 °F -  
Max Temperature 46 °F 67 °F 73 °F (1997)
Min Temperature 37 °F 49 °F 37 °F (2013)
Degree Days  
Heating Degree Days 10    
Growing Degree Days 4 (Base 50)    
Moisture  
Dew Point 29 °F    
Average Humidity 42    
Maximum Humidity 76    
Minimum Humidity 16    
Precipitation  
Precipitation 0.00 in - - ()
Sea Level Pressure  
Sea Level Pressure 30.10 in    
Wind  
Wind Speed 5 mph (WNW)    
Max Wind Speed 12 mph    
Max Gust Speed 18 mph    
Averages and records for this station are not official NWS values.
T = Trace of Precipitation, MM = Missing Value Source: NWS Daily Summary

Daily Weather History Graph

Daily Weather History Graph

Search for Another Location

Airport:

Trip Planner

Search our weather history database for the weather conditions in past years. The results will help you decide how hot, cold, wet, or windy it might be!

Date:

Astronomy

May. 14, 2013 Rise Set
Actual Time 5:42 AM EDT 8:05 PM EDT
Civil Twilight 5:12 AM EDT 8:35 PM EDT
Nautical Twilight 4:34 AM EDT 9:13 PM EDT
Astronomical Twilight 3:52 AM EDT 9:55 PM EDT
Moon 9:20 AM EDT (5/14) 11:51 PM EDT (5/14)
Length of Visible Light 15h 23m
Length of Day
14h 22m
Waxing Crescent, 19% of the Moon is Illuminated
May 14
Waxing Crescent
May 18
First Quarter
May 25
Full
May 31
Last Quarter
Jun 8
New

Hourly Weather History & Observations

Time (EDT) Temp. Windchill Dew Point Humidity Pressure Visibility Wind Dir Wind Speed Gust Speed Precip Events Conditions
12:00 AM 50.0 °F - 30.9 °F 48% 30.11 in - NW 3.5 mph - N/A   Clear
1:00 AM 45.0 °F 42.6 °F 30.9 °F 58% 30.12 in - West 4.6 mph - N/A   Clear
2:00 AM 39.0 °F - 32.0 °F 76% 30.11 in - Calm Calm - N/A   Clear
3:00 AM 37.9 °F 35.5 °F 30.9 °F 76% 30.12 in - WNW 3.5 mph - N/A   Clear
4:00 AM 39.9 °F 37.8 °F 32.0 °F 73% 30.12 in - WNW 3.5 mph - N/A   Clear
5:00 AM 45.0 °F 42.6 °F 32.0 °F 60% 30.12 in - WNW 4.6 mph - N/A   Clear
6:00 AM 39.9 °F 37.8 °F 32.0 °F 73% 30.13 in - NW 3.5 mph - N/A   Clear
7:00 AM 50.0 °F - 34.0 °F 54% 30.14 in - WNW 4.6 mph - N/A   Clear
8:00 AM 54.0 °F - 32.0 °F 43% 30.14 in - NW 4.6 mph - N/A   Clear
9:00 AM 59.0 °F - 30.9 °F 35% 30.14 in - WNW 6.9 mph - N/A   Clear
10:00 AM 64.0 °F - 28.0 °F 26% 30.14 in - NW 9.2 mph - N/A   Clear
11:00 AM 64.9 °F - 26.1 °F 23% 30.14 in - West 9.2 mph - N/A   Partly Cloudy
12:00 PM 66.9 °F - 25.0 °F 21% 30.12 in - West 10.4 mph 18.4 mph N/A   Partly Cloudy
2:00 PM 68.0 °F - 24.1 °F 19% 30.10 in - NW 8.1 mph 18.4 mph N/A   Clear
3:00 PM 69.1 °F - 24.1 °F 18% 30.09 in - West 9.2 mph 16.1 mph N/A   Clear
4:00 PM 72.0 °F - 23.0 °F 16% 30.06 in - West 8.1 mph 18.4 mph N/A   Clear
5:00 PM 70.0 °F - 25.0 °F 18% 30.06 in - WNW 8.1 mph 18.4 mph N/A   Clear
6:00 PM 71.1 °F - 24.1 °F 17% 30.05 in - West 11.5 mph - N/A   Clear
7:00 PM 68.0 °F - 25.0 °F 20% 30.04 in - West 8.1 mph - N/A   Clear
8:00 PM 57.9 °F - 30.9 °F 36% 30.05 in - West 3.5 mph - N/A   Clear
9:00 PM 50.0 °F - 30.9 °F 48% 30.06 in - Calm Calm - N/A   Clear
10:00 PM 46.9 °F - 32.0 °F 56% 30.08 in - Calm Calm - N/A   Clear
11:00 PM 50.0 °F - 32.0 °F 50% 30.09 in - SW 3.5 mph - N/A   Clear